Other Public Products
Issued by NWS Charleston, SC

Current Version | Previous Version | Graphics & Text | Print | Product List | Glossary On
Versions: 1 2 3 4 5 6 7 8 9 10 11 12 13 14 15 16 17 18 19 20 21 22 23 24 25 26 27 28 29 30 31 32 33 34 35 36 37 38 39 40 41 42 43 44 45 46 47 48 49 50
000 FPUS82 KCHS 251312 OPUCHS TEST...KCHS/KSAV Gateway Observations...TEST National Weather Service Charleston SC 900 AM EDT SAT MAR 25 2017 NOTE: "fair" indicates few or no clouds below 12,000 feet with no significant weather and/or obstructions to visibility. SCZ050-WAZ558-NCZ071-TXZ119-213-PAZ071-DCZ001-FLZ074-172-MI076- NYZ176-178-MAZ016-IL014-TNZ027-NJZ106-GAZ044-MD014-251400- ...Gateway Observations for Charleston International... CITY SKY/WX TMP DP RH WIND PRES REMARKS Chas Airport PTSUNNY 66 55 67 SE3 30.35R Seattle PTCLDY 43 40 89 S16 30.06R Charlotte CLOUDY 57 50 77 SW3 30.34S Dallas DFW CLEAR 55 45 68 NW12 29.99R Dallas Love PTCLDY 55 44 66 NW13 30.00R Philladelphia CLOUDY 56 46 69 SW13 30.17R Wash National CLOUDY 59 49 69 S9 30.21R Baltimore CLOUDY 61 49 64 SW8 30.18R Miami PTSUNNY 75 62 64 E15 30.18R Detroit CLOUDY 43 39 86 NE12 30.18R FOG Newark CLOUDY 54 39 57 NW5 30.15R Laguardia PTSUNNY 52 38 58 CALM 30.16R J F K CLOUDY 56 42 59 N5 30.17R Boston Logan CLOUDY 40 37 89 N10 30.20R WCI 33 Ft. Lauderdale PTSUNNY 74 59 59 E18 30.18R Chicago O`Hare DRIZZLE 42 39 89 NE14 30.05S Chicago Midway LGT RAIN 42 41 96 NE12 30.04F FOG Houston Bush MOCLDY 71 67 87 NW14 29.99R Houston Hobby MOCLDY 72 69 90 SW10 29.98S FOG Nashville CLOUDY 66 52 60 S16G25 30.09R Atlanta CLOUDY 58 52 80 SE7 30.29S $$ GAZ044-118-TXZ119-213-NCZ071-DCZ001-MDZ014-506-PAZ021-071-NJZ106- NYZ176-178-MAZ106-OHZ011-021-055-MIZ076-KYZ091-ILZ014-INZ047- MNZ060-ONZ431-251400- ...Gateway Observations for Savannah International... CITY SKY/WX TMP DP RH WIND PRES REMARKS Savannah Arpt PTSUNNY 64 57 78 E3 30.33R Atlanta CLOUDY 58 52 80 SE7 30.29S Charlotte CLOUDY 57 50 77 SW3 30.34S Dallas DFW CLEAR 55 45 68 NW12 29.99R Houston Bush MOCLDY 71 67 87 NW14 29.99R Wash National CLOUDY 59 49 69 S9 30.21R Wash Dulles CLOUDY 59 47 64 S8 30.20R Baltimore CLOUDY 61 49 64 SW8 30.18R Philadelphia CLOUDY 56 46 69 SW13 30.17R Newark CLOUDY 54 39 57 NW5 30.15R Laguardia PTSUNNY 52 38 58 CALM 30.16R J F K CLOUDY 56 42 59 N5 30.17R Boston CLOUDY 40 37 89 N10 30.20R WCI 33 Pittsburg CLOUDY 63 51 65 SW9 30.16R Akron CLOUDY 61 50 67 SW10 30.15R Cleveland CLOUDY 63 51 65 S6 30.15R Cincinnati CLOUDY 60 49 66 S12 30.12S Columbus PTSUNNY 59 50 71 S7 30.15S Detroit CLOUDY 43 39 86 NE12 30.18R FOG Chicago O`Hare DRIZZLE 42 39 89 NE14 30.05S Minneapolis CLOUDY 37 30 75 NE13 30.17S WCI 29 Indianapolis CLOUDY 61 51 70 SE9 30.03S Toronto Canada LGT RAIN 36 34 93 NE7 30.26R WCI 30 $$

USA.gov is the U.S. government's official web portal to all federal, state and local government web resources and services.